[[{"header":{"parameterUnit":"m.s-1","parameterCategory":1,"la1":30.2991,"la2":30.254,"lo1":-89.0895,"lo2":-89.0444,"dy":0.0017,"dx":0.0017,"nx":28,"ny":28,"refTime":"2024-03-12T09:00:00:Z","depth":0,"parameterNumber":2,"parameterNumberName":"U-component_of_WINDS"},"data":[0,0,0,0,0,0,0,0,0,0,0,0,0,0,0,0,0,0,0,0,0,0,0,0,0,0,0,0,0,0,0,0,0,0,0,0,0,0,0,0,0,0,0,0,0,0,0,0,0,0,0,0,0,0,0,0,0,0,-0.7417,-0.7416,0,-0.738,-0.738,-0.7379,-0.7334,-0.7333,-0.7333,-0.7332,-0.7297,-0.7297,-0.7296,0,0,0,0,0,0,0,0,0,0,0,0,0,-0.7449,-0.7449,-0.7417,-0.7416,-0.7416,-0.738,-0.738,-0.7379,-0.7334,-0.7333,-0.7332,-0.7332,-0.7297,-0.7297,-0.7296,0,0,0,0,0,0,0,0,0,0,0,0,0,-0.7426,-0.7449,-0.7417,-0.7389,-0.7386,-0.738,-0.738,-0.7379,-0.7334,-0.7333,-0.7332,-0.7331,-0.7297,-0.7297,-0.7296,-0.7316,0,0,-0.7295,-0.7295,0,0,0,0,0,0,0,0,-0.7428,-0.7425,-0.7393,-0.7391,-0.7388,-0.7361,-0.7378,-0.7358,-0.7335,-0.7354,-0.7332,-0.7331,-0.7319,-0.7317,-0.7313,-0.7314,-0.7313,-0.7295,-0.7295,-0.7295,-0.7295,0,0,0,0,0,0,0,-0.7429,-0.7427,-0.7402,-0.7393,-0.7389,-0.7379,-0.7375,-0.7374,-0.7343,-0.7352,-0.7349,-0.7345,-0.7317,-0.7313,-0.7311,-0.7312,-0.7295,-0.7295,-0.7295,-0.7294,-0.7329,-0.733,0,0,0,0,0,0,-0.7435,-0.7428,-0.7403,-0.7401,-0.7405,-0.7379,-0.7374,-0.737,-0.7343,-0.7338,-0.7346,-0.7343,-0.7314,-0.7312,-0.731,-0.7332,-0.7295,-0.7294,-0.7294,-0.7328,-0.7329,-0.7331,0,0,0,0,0,0,-0.7436,-0.7433,-0.7405,-0.7414,-0.7409,-0.738,-0.7376,-0.737,-0.7366,-0.7338,-0.7333,-0.7347,-0.7313,-0.731,-0.7315,-0.733,-0.7294,-0.7294,-0.7327,-0.7328,-0.733,-0.7375,0,0,0,0,0,0,-0.7437,-0.7434,-0.744,-0.7414,-0.7409,-0.741,-0.7377,-0.737,-0.7365,-0.7361,-0.7338,-0.7333,-0.7312,-0.7316,-0.7314,-0.7329,-0.7294,-0.7325,-0.7327,-0.7329,-0.7372,-0.7378,-0.7383,0,0,0,0,0,-0.7438,-0.7455,-0.7441,-0.7438,-0.7416,-0.7411,-0.7408,-0.7383,-0.7366,-0.7373,-0.7356,-0.7334,-0.7328,-0.7316,-0.7315,-0.7329,-0.7324,-0.7327,-0.7329,-0.737,-0.7377,-0.7383,0,0,0,0,0,0,-0.7484,-0.7451,-0.7435,-0.7443,-0.743,-0.7403,-0.7411,-0.7391,-0.7383,-0.7379,-0.7349,-0.7344,-0.7353,-0.7341,-0.7329,-0.7347,-0.7323,-0.7325,-0.7354,-0.7361,-0.7366,-0.7369,-0.7293,0,0,0,0,0,-0.7495,-0.7492,-0.7463,-0.7474,-0.7468,-0.7441,-0.7437,-0.7419,-0.7404,-0.7399,-0.7381,-0.7369,-0.7364,-0.7362,-0.7356,-0.737,-0.7365,-0.7379,-0.7385,-0.7389,-0.7392,-0.7399,-0.7406,-0.7339,-0.7339,-0.7339,0,0,-0.7518,-0.7499,-0.7499,-0.7482,-0.747,-0.7469,-0.7436,-0.7436,-0.7435,-0.7399,-0.7402,-0.7389,-0.7373,-0.7382,-0.7386,-0.7373,-0.7409,-0.7393,-0.7396,-0.7397,-0.7403,-0.7409,-0.7415,-0.7341,-0.734,-0.734,0,0,-0.7558,-0.7544,-0.7551,-0.7539,-0.7521,-0.7502,-0.7504,-0.748,-0.747,-0.7472,-0.7445,-0.7444,-0.7437,-0.7426,-0.742,-0.7458,-0.7438,-0.7457,-0.7486,-0.7494,-0.7499,-0.7504,-0.7518,-0.7523,-0.746,-0.746,-0.746,0,-0.7589,-0.7586,-0.7557,-0.7559,-0.7553,-0.7519,-0.7527,-0.7517,-0.7498,-0.7495,-0.7481,-0.7471,-0.7458,-0.7465,-0.7474,-0.747,-0.7472,-0.746,-0.75,-0.7505,-0.7509,-0.7522,-0.7527,-0.7462,-0.7462,-0.7462,-0.7461,0,-0.7625,-0.7623,-0.7631,-0.7613,-0.7608,-0.7612,-0.7586,-0.7584,-0.7566,-0.755,-0.7553,-0.7536,-0.7527,-0.7527,-0.751,-0.7532,-0.7524,-0.7506,-0.7481,-0.7518,-0.753,-0.7535,-0.7466,-0.7465,-0.7464,-0.7463,0,0,-0.7694,-0.766,-0.7664,-0.7655,-0.7633,-0.7631,-0.7634,-0.7624,-0.7624,-0.7612,-0.7615,-0.7609,-0.7592,-0.7585,-0.7567,-0.7573,-0.7605,-0.7554,-0.7553,-0.7565,-0.763,-0.7644,-0.7651,-0.7592,-0.7592,-0.7593,-0.7631,0,-0.7732,-0.7735,-0.771,-0.7721,-0.7719,-0.7687,-0.769,-0.7677,-0.7662,-0.7659,-0.7642,-0.7639,-0.7616,-0.7612,-0.7617,-0.76,-0.7618,-0.7597,-0.7595,-0.7595,-0.7601,-0.7657,-0.7672,-0.7709,-0.7636,-0.7636,-0.7637,0,-0.7776,-0.7766,-0.7776,-0.7753,-0.7752,-0.7755,-0.7744,-0.7741,-0.7726,-0.7715,-0.7707,-0.7686,-0.7689,-0.7665,-0.7669,-0.7655,-0.7653,-0.7645,-0.7645,-0.7645,-0.7619,-0.7659,-0.772,-0.7726,-0.7644,-0.7643,-0.7643,0,-0.7826,-0.7815,-0.782,-0.7814,-0.7787,-0.779,-0.778,-0.7763,-0.7759,-0.775,-0.7747,-0.7738,-0.7734,-0.7728,-0.7706,-0.769,-0.7713,-0.7687,-0.7704,-0.7705,-0.7711,-0.7711,-0.7774,-0.7708,-0.7708,-0.7708,-0.7708,0,-0.7871,-0.7879,-0.7843,-0.7846,-0.7854,-0.7825,-0.7834,-0.7821,-0.7806,-0.7807,-0.7779,-0.778,-0.7749,-0.7748,-0.773,-0.7737,-0.7735,-0.7726,-0.7722,-0.7729,-0.773,-0.7728,-0.7725,-0.7709,-0.7709,-0.7709,-0.7709,0,-0.793,-0.7905,-0.7909,-0.7883,-0.7876,-0.7884,-0.7862,-0.7864,-0.7847,-0.7849,-0.7847,-0.7821,-0.7817,-0.7794,-0.7785,-0.7773,-0.7787,-0.7777,-0.7792,-0.7789,-0.7808,-0.7807,-0.7872,-0.7879,-0.7808,-0.7809,-0.781,0,-0.796,-0.7966,-0.794,-0.7938,-0.7928,-0.7926,-0.7921,-0.7893,-0.789,-0.7873,-0.7878,-0.7872,-0.7865,-0.7861,-0.7842,-0.7835,-0.7826,-0.7849,-0.7824,-0.7832,-0.7827,-0.7827,-0.7828,-0.7854,-0.7855,-0.7856,-0.7857,0,-0.8018,-0.8006,-0.8,-0.799,-0.7985,-0.7976,-0.7965,-0.7966,-0.7935,-0.7933,-0.7928,-0.7924,-0.7914,-0.7909,-0.7899,-0.7889,-0.7868,-0.7864,-0.7868,-0.7876,-0.7885,-0.7882,-0.7807,-0.7863,-0.7862,-0.7862,-0.7862,-0.7861,-0.8064,-0.8067,-0.805,-0.8045,-0.8033,-0.8024,-0.8025,-0.8008,-0.8004,-0.7994,-0.7978,-0.7976,-0.7961,-0.7946,-0.7937,-0.7936,-0.7924,-0.7929,-0.793,-0.7932,-0.7937,-0.7885,-0.7934,-0.7933,-0.7933,-0.7933,-0.7933,0,-0.8121,-0.8108,-0.8103,-0.8089,-0.8085,-0.8065,-0.8052,-0.805,-0.8049,-0.8036,-0.8031,-0.8026,-0.8021,-0.8001,-0.7994,-0.7997,-0.7988,-0.7996,-0.7996,-0.7994,-0.7948,-0.7945,-0.8004,-0.8004,-0.8004,-0.8004,-0.8004,-0.8004,-0.815,-0.8155,-0.8141,-0.814,-0.8127,-0.8125,-0.8119,-0.8111,-0.8101,-0.8097,-0.8092,-0.8079,-0.8064,-0.8056,-0.805,-0.8045,-0.8044,-0.8056,-0.8048,-0.8004,-0.7998,-0.7991,-0.7989,-0.8056,-0.8056,-0.8095,-0.8095,-0.8095]},{"header":{"parameterUnit":"m.s-1","parameterCategory":1,"la1":30.2991,"la2":30.254,"lo1":-89.0895,"lo2":-89.0444,"dy":0.0017,"dx":0.0017,"nx":28,"ny":28,"refTime":"2024-03-12T09:00:00:Z","depth":0,"parameterNumber":3,"parameterNumberName":"V-component_of_WINDS"},"data":[0,0,0,0,0,0,0,0,0,0,0,0,0,0,0,0,0,0,0,0,0,0,0,0,0,0,0,0,0,0,0,0,0,0,0,0,0,0,0,0,0,0,0,0,0,0,0,0,0,0,0,0,0,0,0,0,0,0,3.7681,3.7682,0,3.7758,3.7759,3.776,3.7725,3.7723,3.7721,3.7719,3.7795,3.7798,3.7802,0,0,0,0,0,0,0,0,0,0,0,0,0,3.7497,3.75,3.7681,3.7682,3.7683,3.7758,3.7759,3.776,3.7725,3.7723,3.772,3.7718,3.7793,3.7798,3.7802,0,0,0,0,0,0,0,0,0,0,0,0,0,3.7576,3.7501,3.768,3.7674,3.7674,3.7758,3.7759,3.7761,3.7726,3.7723,3.772,3.7717,3.7792,3.7797,3.7803,3.7896,0,0,3.7821,3.7823,0,0,0,0,0,0,0,0,3.7571,3.7582,3.7674,3.7675,3.7675,3.7729,3.7722,3.7806,3.7726,3.7706,3.7719,3.7716,3.7775,3.7782,3.7803,3.79,3.7903,3.7821,3.7825,3.7827,3.7829,0,0,0,0,0,0,0,3.7566,3.7579,3.7711,3.7675,3.7676,3.7666,3.7674,3.7738,3.7756,3.7708,3.7705,3.7715,3.7775,3.7797,3.7804,3.7904,3.7821,3.7826,3.7829,3.7832,3.8079,3.8082,0,0,0,0,0,0,3.7561,3.7575,3.7709,3.7714,3.7615,3.7672,3.7681,3.7715,3.7755,3.7758,3.7717,3.7713,3.7789,3.7797,3.7807,3.7917,3.7827,3.7832,3.7836,3.8076,3.808,3.8083,0,0,0,0,0,0,3.7557,3.7573,3.7706,3.7643,3.766,3.7678,3.7716,3.7718,3.774,3.7762,3.7765,3.7738,3.7787,3.7799,3.7874,3.7919,3.7835,3.784,3.8073,3.8077,3.8082,3.8139,0,0,0,0,0,0,3.7552,3.7572,3.7609,3.7645,3.7663,3.7773,3.7719,3.7721,3.7751,3.7746,3.7782,3.7785,3.7786,3.7866,3.788,3.7925,3.7845,3.8069,3.8075,3.808,3.8133,3.8145,3.8155,0,0,0,0,0,3.7546,3.7622,3.7611,3.7627,3.771,3.7776,3.7786,3.7787,3.7755,3.7791,3.7805,3.7784,3.7912,3.7874,3.7889,3.7937,3.8066,3.8073,3.808,3.8128,3.8143,3.8155,0,0,0,0,0,0,3.759,3.7626,3.7615,3.7705,3.7738,3.777,3.7816,3.7802,3.7844,3.7837,3.7834,3.7843,3.7921,3.7937,3.7893,3.8028,3.7984,3.7994,3.8015,3.8029,3.804,3.8034,3.7849,0,0,0,0,0,3.761,3.7662,3.7691,3.7767,3.7785,3.7798,3.7827,3.7824,3.7857,3.787,3.789,3.7922,3.7969,3.8,3.8045,3.8136,3.8142,3.8176,3.8187,3.8196,3.8205,3.8252,3.8267,3.8107,3.8107,3.8107,0,0,3.7652,3.7679,3.7712,3.7777,3.7802,3.7855,3.7809,3.7867,3.7906,3.7879,3.7951,3.7967,3.8002,3.8085,3.8122,3.81,3.825,3.8205,3.8212,3.8216,3.8261,3.8276,3.8289,3.8112,3.8111,3.811,0,0,3.7756,3.7782,3.7848,3.7874,3.7913,3.7921,3.7937,3.7971,3.7981,3.8054,3.8034,3.8079,3.8161,3.8186,3.821,3.8322,3.8304,3.8337,3.8394,3.844,3.8452,3.8464,3.8502,3.8516,3.8346,3.8346,3.8346,0,3.7803,3.7883,3.7883,3.7942,3.7971,3.795,3.8015,3.804,3.8092,3.8111,3.8086,3.8188,3.821,3.8298,3.8325,3.8346,3.8362,3.8332,3.8451,3.8462,3.8472,3.8509,3.8523,3.8349,3.8349,3.8348,3.8348,0,3.7938,3.7993,3.8041,3.8092,3.8126,3.8188,3.8196,3.823,3.8225,3.8234,3.8308,3.8334,3.8383,3.8404,3.8399,3.849,3.8475,3.8451,3.8406,3.8491,3.8525,3.8539,3.8354,3.8353,3.8352,3.8351,0,0,3.8071,3.8121,3.8138,3.816,3.8202,3.8244,3.8304,3.8353,3.8381,3.8417,3.8466,3.8536,3.8513,3.854,3.8537,3.8578,3.8663,3.8548,3.8549,3.8567,3.8763,3.878,3.8797,3.8651,3.8654,3.8656,3.876,0,3.8176,3.8283,3.8285,3.8382,3.8432,3.8413,3.8465,3.8495,3.8506,3.8548,3.856,3.8609,3.8576,3.8592,3.8631,3.8644,3.8702,3.8637,3.8695,3.8697,3.8685,3.8815,3.8833,3.893,3.8773,3.8775,3.8777,0,3.8313,3.8354,3.8457,3.8489,3.851,3.8558,3.8602,3.8644,3.8676,3.8681,3.8711,3.8702,3.8761,3.8715,3.8796,3.8752,3.8775,3.8785,3.8789,3.8793,3.8741,3.8821,3.896,3.8974,3.8798,3.8797,3.8795,0,3.8397,3.8478,3.855,3.857,3.861,3.8643,3.8661,3.8691,3.872,3.8758,3.8777,3.8821,3.8845,3.8879,3.8881,3.8848,3.8961,3.8916,3.8965,3.8965,3.8989,3.8987,3.9133,3.9007,3.9007,3.9007,3.9007,0,3.8514,3.8577,3.8588,3.8632,3.8702,3.8702,3.8771,3.8785,3.8812,3.8857,3.8843,3.8885,3.8887,3.8929,3.8931,3.8997,3.9008,3.9012,3.9011,3.9012,3.9012,3.9027,3.902,3.9011,3.901,3.9009,3.9008,0,3.8619,3.863,3.8706,3.8738,3.8748,3.8797,3.8824,3.8865,3.8874,3.8931,3.8945,3.8959,3.9008,3.9014,3.9072,3.9073,3.9151,3.9144,3.914,3.9139,3.9187,3.9182,3.9346,3.9367,3.9229,3.9231,3.9232,0,3.8692,3.8741,3.8778,3.8808,3.8828,3.8876,3.8905,3.8907,3.8938,3.8979,3.9014,3.9062,3.9101,3.918,3.9195,3.9238,3.9231,3.9286,3.9237,3.9236,3.923,3.9226,3.923,3.9295,3.9296,3.9297,3.9298,0,3.882,3.8823,3.8866,3.8912,3.8948,3.8984,3.9017,3.9042,3.9047,3.9083,3.9134,3.9164,3.9222,3.9269,3.9312,3.9329,3.9314,3.9314,3.9327,3.9328,3.9323,3.9324,3.9164,3.931,3.9308,3.9308,3.9307,3.9307,3.891,3.8952,3.8984,3.9033,3.9059,3.909,3.913,3.9144,3.9187,3.9236,3.9234,3.9289,3.9319,3.9375,3.9395,3.9437,3.9418,3.9438,3.9443,3.9447,3.9452,3.9318,3.9445,3.9444,3.9444,3.9444,3.9444,0,3.9036,3.9056,3.9101,3.9148,3.9186,3.9171,3.9207,3.9239,3.9288,3.9318,3.9356,3.9414,3.9459,3.9477,3.9521,3.9552,3.9546,3.9563,3.956,3.9564,3.9466,3.945,3.9567,3.9567,3.9567,3.9567,3.9567,3.9567,3.9106,3.9174,3.9181,3.9261,3.928,3.9335,3.9357,3.9385,3.9408,3.9474,3.9512,3.9524,3.9548,3.9594,3.9634,3.9638,3.9654,3.9674,3.9675,3.9583,3.9571,3.9559,3.9543,3.9678,3.9678,3.9768,3.9769,3.977]}]]